Simultaneous Nadir Overpasses (SNOs) Predictions

Prediction of SNOs between GOES-14 and NPP Satellite Orbit:

Table of predicted SNOs for the next 14.0 days since TLE Epoch: 8/31/2024
Index Date Time (GOES-14) GOES-14 Lat,Lon NPP Lat,Lon Distance(km) Time Diff (sec)
1 08/31/2024 08:30:50 0.00,-108.35 -0.30,-106.89 165.96 80
2 09/01/2024 20:52:45 -0.00,-108.31 -0.89,-112.19 442.46 80
3 09/02/2024 20:36:39 -0.00,-108.32 0.12,-107.66 74.92 80
4 09/05/2024 08:39:40 0.00,-108.37 0.01,-108.39 2.50 80
5 09/07/2024 20:40:09 -0.01,-108.33 -0.19,-109.15 93.99 80
6 09/08/2024 20:24:04 -0.01,-108.33 0.84,-104.62 423.29 80
7 09/10/2024 08:45:49 0.00,-108.38 0.35,-109.88 171.20 80
8 09/11/2024 08:24:23 0.00,-108.37 -0.69,-105.35 345.25 80
9 09/12/2024 20:46:17 0.00,-108.32 -0.54,-110.63 264.71 80
10 09/13/2024 20:30:11 0.00,-108.32 0.51,-106.11 252.22 80
